�������l�o���
Date,Time,MP-1(��Sv/h),MP-2(��Sv/h),MP-3(��Sv/h),MP-4(��Sv/h),MP-5(��Sv/h),MP-6(��Sv/h),MP-7(��Sv/h),MP-8(��Sv/h),����,����(m/s),���J
2018/04/20,00:00,0.850,1.408,0.880,1.619,1.124,0.482,0.843,0.808,�k�k��,2.3,�L
2018/04/20,00:10,0.855,1.410,0.883,1.619,1.126,0.484,0.845,0.810,�k��,1.5,�L
2018/04/20,00:20,0.856,1.414,0.889,1.622,1.129,0.486,0.845,0.809,�k,3.0,�L
2018/04/20,00:30,0.857,1.416,0.889,1.623,1.129,0.488,0.846,0.809,�k�k��,6.4,�L
2018/04/20,00:40,0.858,1.414,0.891,1.622,1.128,0.489,0.848,0.811,�k�k��,6.4,�L
2018/04/20,00:50,0.858,1.414,0.887,1.624,1.130,0.488,0.845,0.810,�k�k��,4.6,��
2018/04/20,01:00,0.858,1.411,0.887,1.623,1.126,0.489,0.843,0.810,��,4.9,�L
2018/04/20,01:10,0.855,1.413,0.885,1.622,1.126,0.487,0.845,0.811,�쓌,3.1,�L
2018/04/20,01:20,0.854,1.404,0.887,1.620,1.125,0.487,0.844,0.810,�쓌,2.9,�L
2018/04/20,01:30,0.856,1.404,0.884,1.621,1.123,0.488,0.841,0.808,���쓌,2.8,�L
2018/04/20,01:40,0.853,1.405,0.881,1.617,1.121,0.486,0.842,0.808,��,1.5,�L
2018/04/20,01:50,0.851,1.403,0.880,1.618,1.120,0.486,0.840,0.807,�k�k��,0.6,�L
2018/04/20,02:00,0.849,1.403,0.880,1.617,1.117,0.483,0.840,0.807,�k,2.0,��
2018/04/20,02:10,0.849,1.404,0.878,1.614,1.116,0.483,0.841,0.807,�k,2.0,��
2018/04/20,02:20,0.846,1.400,0.878,1.613,1.120,0.484,0.840,0.807,���쓌,0.6,��
2018/04/20,02:30,0.846,1.399,0.876,1.616,1.117,0.483,0.842,0.807,���쐼,1.1,��
2018/04/20,02:40,0.846,1.397,0.877,1.613,1.117,0.480,0.840,0.808,�쐼,1.7,��
2018/04/20,02:50,0.845,1.400,0.878,1.614,1.116,0.480,0.841,0.807,���쐼,1.9,��
2018/04/20,03:00,0.844,1.399,0.875,1.610,1.115,0.481,0.841,0.806,��,3.0,��
2018/04/20,03:10,0.844,1.399,0.876,1.615,1.115,0.480,0.841,0.807,��,3.6,��
2018/04/20,03:20,0.845,1.396,0.874,1.616,1.113,0.481,0.840,0.805,��,3.9,��
2018/04/20,03:30,0.843,1.397,0.873,1.615,1.114,0.479,0.839,0.806,���쐼,4.2,��
2018/04/20,03:40,0.845,1.395,0.873,1.615,1.115,0.478,0.840,0.807,���쐼,4.2,��
2018/04/20,03:50,0.844,1.396,0.875,1.613,1.114,0.478,0.841,0.806,���쐼,4.2,��
2018/04/20,04:00,0.843,1.397,0.872,1.612,1.116,0.478,0.842,0.808,��,4.8,��
2018/04/20,04:10,0.842,1.397,0.872,1.611,1.113,0.479,0.842,0.806,��,5.7,��
2018/04/20,04:20,0.843,1.394,0.874,1.613,1.115,0.477,0.842,0.807,��,4.9,��
2018/04/20,04:30,0.841,1.394,0.871,1.611,1.115,0.479,0.841,0.806,���k��,3.3,��
2018/04/20,04:40,0.842,1.395,0.875,1.612,1.113,0.479,0.841,0.807,���k��,2.0,��
2018/04/20,04:50,0.840,1.392,0.872,1.613,1.112,0.477,0.840,0.807,���쐼,0.8,��
2018/04/20,05:00,0.842,1.396,0.872,1.612,1.111,0.477,0.841,0.807,��,2.0,��
2018/04/20,05:10,0.842,1.396,0.873,1.612,1.109,0.479,0.840,0.806,��쐼,1.5,��
2018/04/20,05:20,0.841,1.394,0.874,1.614,1.112,0.477,0.840,0.806,��쓌,1.1,��
2018/04/20,05:30,0.843,1.394,0.874,1.611,1.112,0.477,0.842,0.807,�k��,1.1,��
2018/04/20,05:40,0.841,1.393,0.874,1.609,1.110,0.478,0.841,0.805,���k��,0.9,��
2018/04/20,05:50,0.842,1.395,0.873,1.610,1.113,0.477,0.842,0.806,���쐼,1.5,��
2018/04/20,06:00,0.842,1.394,0.872,1.612,1.109,0.477,0.842,0.805,���쐼,3.8,��
2018/04/20,06:10,0.843,1.396,0.872,1.613,1.113,0.477,0.841,0.806,���쐼,7.9,��
2018/04/20,06:20,0.842,1.396,0.872,1.609,1.114,0.477,0.842,0.807,���쐼,10.8,��
2018/04/20,06:30,0.843,1.395,0.873,1.615,1.114,0.479,0.843,0.806,��,9.1,��
2018/04/20,06:40,0.843,1.400,0.874,1.614,1.112,0.478,0.842,0.805,��,7.8,��
2018/04/20,06:50,0.843,1.396,0.877,1.616,1.115,0.480,0.842,0.807,���k��,5.4,��
2018/04/20,07:00,0.842,1.397,0.875,1.613,1.113,0.478,0.844,0.809,���k��,7.4,��
2018/04/20,07:10,0.846,1.401,0.877,1.613,1.115,0.478,0.843,0.808,���k��,7.4,��
2018/04/20,07:20,0.845,1.401,0.876,1.613,1.113,0.479,0.844,0.807,���k��,6.3,��
2018/04/20,07:30,0.843,1.401,0.876,1.616,1.115,0.478,0.843,0.811,���k��,6.7,��
2018/04/20,07:40,0.844,1.395,0.876,1.617,1.115,0.476,0.842,0.809,���k��,6.1,��
2018/04/20,07:50,0.844,1.399,0.878,1.616,1.114,0.476,0.843,0.809,���k��,7.0,��
2018/04/20,08:00,0.848,1.399,0.878,1.616,1.116,0.476,0.842,0.808,���k��,6.2,��
2018/04/20,08:10,0.846,1.397,0.878,1.619,1.118,0.475,0.842,0.808,���k��,6.9,��
2018/04/20,08:20,0.848,1.396,0.876,1.623,1.118,0.476,0.844,0.809,�k��,6.4,��
2018/04/20,08:30,0.845,1.399,0.874,1.620,1.116,0.475,0.840,0.808,�k��,7.2,��
2018/04/20,08:40,0.844,1.399,0.876,1.622,1.116,0.477,0.844,0.806,�k��,3.9,��
2018/04/20,08:50,0.845,1.403,0.877,1.621,1.117,0.476,0.840,0.804,�k,4.5,��
2018/04/20,09:00,0.846,1.401,0.875,1.624,1.119,0.478,0.843,0.807,�k�k��,3.6,��
2018/04/20,09:10,0.845,1.403,0.876,1.623,1.118,0.477,0.842,0.805,�k�k��,6.1,��
2018/04/20,09:20,0.846,1.402,0.877,1.623,1.119,0.477,0.843,0.805,�k�k��,5.3,��
2018/04/20,09:30,0.846,1.403,0.876,1.620,1.118,0.478,0.843,0.807,�k��,4.9,��
2018/04/20,09:40,0.845,1.402,0.874,1.624,1.119,0.478,0.842,0.805,�k�k��,5.7,��
2018/04/20,09:50,0.844,1.402,0.874,1.624,1.119,0.477,0.840,0.806,�k��,6.2,��
2018/04/20,10:00,0.847,1.405,0.874,1.624,1.121,0.477,0.843,0.805,�k��,6.5,��
2018/04/20,10:10,0.845,1.407,0.876,1.624,1.121,0.478,0.841,0.805,�k�k��,8.6,��
2018/04/20,10:20,0.847,1.405,0.875,1.623,1.119,0.480,0.843,0.807,�k�k��,7.6,��
2018/04/20,10:30,0.847,1.407,0.876,1.626,1.122,0.478,0.841,0.806,�k�k��,6.9,��
2018/04/20,10:40,0.846,1.407,0.877,1.626,1.123,0.478,0.843,0.806,�k�k��,6.7,��
2018/04/20,10:50,0.849,1.405,0.877,1.628,1.123,0.479,0.843,0.806,�k��,5.7,��
2018/04/20,11:00,0.850,1.408,0.876,1.626,1.123,0.478,0.843,0.806,�k��,5.6,��
2018/04/20,11:10,0.850,1.405,0.876,1.623,1.125,0.478,0.844,0.805,�k��,7.2,��
2018/04/20,11:20,0.850,1.412,0.878,1.626,1.123,0.479,0.843,0.806,�k�k��,6.4,��
2018/04/20,11:30,0.849,1.409,0.877,1.627,1.126,0.477,0.843,0.808,�k�k��,7.1,��
2018/04/20,11:40,0.850,1.408,0.875,1.624,1.125,0.479,0.844,0.807,�k�k��,6.1,��
2018/04/20,11:50,0.850,1.410,0.879,1.625,1.126,0.478,0.842,0.808,�k�k��,7.1,��
2018/04/20,12:00,0.850,1.409,0.879,1.624,1.127,0.478,0.844,0.809,�k�k��,7.8,��
2018/04/20,12:10,0.852,1.411,0.879,1.624,1.129,0.479,0.843,0.808,�k�k��,4.3,��
2018/04/20,12:20,0.851,1.412,0.881,1.626,1.128,0.480,0.844,0.807,�k�k��,3.8,��
2018/04/20,12:30,0.852,1.412,0.879,1.626,1.129,0.478,0.844,0.806,�k�k��,3.9,��
2018/04/20,12:40,0.853,1.414,0.879,1.625,1.128,0.478,0.845,0.807,�k�k��,3.7,��
2018/04/20,12:50,0.855,1.412,0.881,1.626,1.129,0.477,0.844,0.807,�k�k��,4.0,��
2018/04/20,13:00,0.853,1.416,0.881,1.628,1.129,0.479,0.845,0.808,�k�k��,3.6,��
2018/04/20,13:10,0.854,1.412,0.881,1.627,1.131,0.478,0.845,0.806,�k�k��,4.8,��
2018/04/20,13:20,0.855,1.414,0.879,1.632,1.130,0.479,0.846,0.808,�k�k��,6.3,��
2018/04/20,13:30,0.855,1.415,0.881,1.630,1.130,0.480,0.846,0.808,�k�k��,6.4,��
2018/04/20,13:40,0.853,1.414,0.882,1.629,1.132,0.480,0.846,0.809,�k�k��,6.3,��
2018/04/20,13:50,0.854,1.415,0.882,1.631,1.131,0.480,0.845,0.807,�k�k��,3.1,��
2018/04/20,14:00,0.853,1.414,0.882,1.630,1.133,0.480,0.846,0.808,�k��,3.1,��
2018/04/20,14:10,0.852,1.417,0.881,1.632,1.134,0.482,0.844,0.809,�k��,3.4,��
2018/04/20,14:20,0.854,1.417,0.882,1.632,1.134,0.481,0.845,0.808,�k��,3.3,��
2018/04/20,14:30,0.852,1.415,0.882,1.632,1.133,0.480,0.845,0.809,�k�k��,3.8,��
2018/04/20,14:40,0.856,1.408,0.883,1.630,1.131,0.481,0.847,0.812,�k�k��,3.9,��
2018/04/20,14:50,0.856,1.420,0.882,1.631,1.132,0.480,0.845,0.809,�k�k��,4.1,��
2018/04/20,15:00,0.857,1.419,0.882,1.630,1.133,0.480,0.846,0.808,�k�k��,4.4,��
2018/04/20,15:10,0.857,1.416,0.885,1.627,1.133,0.483,0.845,0.810,�k��,4.1,��
2018/04/20,15:20,0.855,1.417,0.884,1.627,1.134,0.480,0.845,0.807,�k�k��,2.8,��
2018/04/20,15:30,0.857,1.420,0.884,1.630,1.134,0.482,0.848,0.808,�k�k��,3.2,��
2018/04/20,15:40,0.857,1.420,0.884,1.633,1.132,0.482,0.847,0.808,�k�k��,2.8,��
2018/04/20,15:50,0.855,1.419,0.884,1.633,1.135,0.482,0.845,0.808,�k��,2.3,��
2018/04/20,16:00,0.856,1.417,0.881,1.632,1.134,0.481,0.847,0.808,�k�k��,3.7,��
2018/04/20,16:10,0.858,1.417,0.883,1.631,1.135,0.482,0.847,0.809,�k�k��,3.3,��
2018/04/20,16:20,0.855,1.418,0.883,1.632,1.135,0.480,0.847,0.808,�k�k��,2.6,��
2018/04/20,16:30,0.857,1.420,0.883,1.630,1.135,0.481,0.847,0.810,�k��,2.2,��
2018/04/20,16:40,0.855,1.416,0.884,1.631,1.135,0.483,0.848,0.808,�k�k��,2.3,��
2018/04/20,16:50,0.856,1.420,0.885,1.632,1.133,0.482,0.845,0.809,�k�k��,1.5,��
2018/04/20,17:00,0.855,1.423,0.884,1.634,1.135,0.482,0.848,0.810,�k,1.2,��
2018/04/20,17:10,0.855,1.422,0.885,1.631,1.134,0.483,0.847,0.809,�k�k��,2.6,��
2018/04/20,17:20,0.855,1.423,0.885,1.633,1.135,0.483,0.846,0.810,�k�k��,2.6,��
2018/04/20,17:30,0.855,1.421,0.884,1.633,1.134,0.483,0.845,0.810,�k,2.6,��
2018/04/20,17:40,0.857,1.423,0.884,1.631,1.133,0.482,0.846,0.809,�k,1.7,��
2018/04/20,17:50,0.857,1.424,0.884,1.631,1.132,0.482,0.845,0.811,�k�k��,0.8,��
2018/04/20,18:00,0.858,1.421,0.886,1.632,1.135,0.482,0.845,0.810,�k,1.2,��
2018/04/20,18:10,0.858,1.422,0.885,1.632,1.135,0.481,0.844,0.811,�k�k��,0.6,��
2018/04/20,18:20,0.860,1.422,0.885,1.634,1.135,0.483,0.844,0.813,�k�k��,1.4,��
2018/04/20,18:30,0.857,1.423,0.886,1.635,1.136,0.481,0.845,0.812,-,CALM,��
2018/04/20,18:40,0.857,1.422,0.886,1.635,1.135,0.483,0.845,0.810,�k��,0.6,��
2018/04/20,18:50,0.857,1.423,0.886,1.635,1.138,0.481,0.845,0.810,-,CALM,��
2018/04/20,19:00,0.859,1.420,0.886,1.634,1.138,0.480,0.846,0.811,-,CALM,��
2018/04/20,19:10,0.859,1.422,0.884,1.633,1.134,0.480,0.846,0.811,-,CALM,��
2018/04/20,19:20,0.858,1.422,0.883,1.635,1.136,0.481,0.847,0.812,-,CALM,��
2018/04/20,19:30,0.858,1.423,0.884,1.634,1.138,0.481,0.845,0.811,-,CALM,��
2018/04/20,19:40,0.859,1.424,0.886,1.636,1.138,0.480,0.847,0.811,-,CALM,��
2018/04/20,19:50,0.857,1.421,0.885,1.634,1.136,0.482,0.848,0.810,-,CALM,��
2018/04/20,20:00,0.856,1.420,0.886,1.635,1.136,0.479,0.847,0.810,-,CALM,��
2018/04/20,20:10,0.856,1.421,0.883,1.634,1.135,0.480,0.848,0.810,���k��,0.6,��
2018/04/20,20:20,0.856,1.418,0.886,1.634,1.134,0.480,0.847,0.808,-,CALM,��
2018/04/20,20:30,0.857,1.420,0.885,1.632,1.134,0.481,0.846,0.810,-,CALM,��
2018/04/20,20:40,0.855,1.422,0.882,1.632,1.133,0.481,0.848,0.809,�쐼,0.9,��
2018/04/20,20:50,0.856,1.419,0.885,1.633,1.133,0.482,0.846,0.809,�쐼,0.9,��
2018/04/20,21:00,0.857,1.419,0.885,1.637,1.136,0.483,0.846,0.808,��,1.1,��
2018/04/20,21:10,0.855,1.421,0.887,1.633,1.137,0.482,0.847,0.810,��,1.1,��
2018/04/20,21:20,0.857,1.422,0.886,1.635,1.134,0.480,0.847,0.810,��,1.2,��
2018/04/20,21:30,0.856,1.421,0.885,1.635,1.134,0.480,0.846,0.810,��,1.9,��
2018/04/20,21:40,0.856,1.420,0.884,1.634,1.133,0.480,0.846,0.808,��,2.0,��
2018/04/20,21:50,0.856,1.419,0.884,1.634,1.135,0.480,0.844,0.810,��,2.0,��
2018/04/20,22:00,0.856,1.420,0.885,1.635,1.133,0.481,0.846,0.810,��,1.7,��
2018/04/20,22:10,0.856,1.419,0.886,1.635,1.131,0.480,0.846,0.809,��,1.5,��
2018/04/20,22:20,0.856,1.420,0.884,1.634,1.135,0.481,0.846,0.808,��,0.6,��
2018/04/20,22:30,0.855,1.420,0.884,1.634,1.135,0.480,0.845,0.810,��,1.2,��
2018/04/20,22:40,0.857,1.419,0.884,1.635,1.134,0.479,0.845,0.811,��,1.2,��
2018/04/20,22:50,0.857,1.421,0.885,1.634,1.134,0.479,0.845,0.810,��쓌,1.5,��
2018/04/20,23:00,0.855,1.423,0.885,1.634,1.133,0.481,0.844,0.810,��쓌,2.3,��
2018/04/20,23:10,0.857,1.422,0.883,1.635,1.134,0.479,0.846,0.810,��쓌,1.5,��
2018/04/20,23:20,0.856,1.421,0.884,1.633,1.133,0.480,0.844,0.809,��쓌,2.0,��
2018/04/20,23:30,0.854,1.418,0.883,1.632,1.134,0.479,0.846,0.810,��쓌,2.6,��
2018/04/20,23:40,0.855,1.421,0.884,1.637,1.135,0.480,0.844,0.810,��쓌,3.7,��
2018/04/20,23:50,0.854,1.420,0.884,1.633,1.134,0.481,0.845,0.809,��쓌,2.6,��
